Champaign, IL

4:59 AM CST on December 15, 2019 (GMT -0600)
Univ Of Illinois-Willard

Weather History for KCMI - November, 2019

Change the Weather History Date:

Thursday, November 14, 2019

  Actual Average Record
Temperature  
Mean Temperature 27 °F 42 °F  
Max Temperature 35 °F 52 °F 72 °F (2011)
Min Temperature 18 °F 33 °F 13 °F (2018)
Degree Days  
Heating Degree Days 38 22  
Month to date heating degree days 451 274  
Since 1 July heating degree days 822 735  
Cooling Degree Days 0 0  
Month to date cooling degree days 0 0  
Year to date cooling degree days 1168 944  
Moisture  
Dew Point 23 °F    
Average Humidity 80    
Maximum Humidity 91    
Minimum Humidity 69    
Precipitation  
Precipitation 0.00 in 0.12 in 0.59 in (2011)
Month to date precipitation 0.00 1.62  
Year to date precipitation 31.99 35.32  
Sea Level Pressure  
Sea Level Pressure 30.28 in    
Wind  
Wind Speed 6 mph (West)    
Max Wind Speed 13 mph    
Max Gust Speed 17 mph    
Visibility 10 miles    
Events      
T = Trace of Precipitation, MM = Missing Value Source: NWS Daily Summary

Daily Weather History Graph

Daily Weather History Graph

Search for Another Location

Airport or City:

Astronomy

Nov. 14, 2019 Rise Set
Actual Time 6:36 AM CST 4:37 PM CST
Civil Twilight 6:08 AM CST 5:06 PM CST
Nautical Twilight 5:35 AM CST 5:39 PM CST
Astronomical Twilight 5:03 AM CST 6:11 PM CST
Moon 6:23 PM CST (11/14) 8:32 AM CST (11/14)
Length of Visible Light 10h 58m
Length of Day
10h 00m
Waning Gibbous, 95% of the Moon is Illuminated
Nov 14
Waning Gibbous
Nov 19
Last Quarter
Nov 26
New
Dec 4
First Quarter
Dec 11
Full

Hourly Weather History & Observations

Time (CST) Temp. Windchill Dew Point Humidity Pressure Visibility Wind Dir Wind Speed Gust Speed Precip Events Conditions
12:53 AM 27.0 °F 19.5 °F 21.0 °F 78% 30.14 in 10.0 mi SSW 6.9 mph - N/A   Overcast
1:53 AM 21.0 °F 12.4 °F 18.0 °F 88% 30.15 in 10.0 mi SSW 6.9 mph - N/A   Partly Cloudy
2:53 AM 21.0 °F 14.6 °F 18.0 °F 88% 30.15 in 10.0 mi SW 4.6 mph - N/A   Clear
3:53 AM 19.9 °F 13.4 °F 18.0 °F 92% 30.16 in 10.0 mi SW 4.6 mph - N/A   Partly Cloudy
4:53 AM 26.1 °F 20.5 °F 21.0 °F 81% 30.17 in 10.0 mi WSW 4.6 mph - N/A   Overcast
5:53 AM 26.1 °F 19.4 °F 21.0 °F 81% 30.19 in 10.0 mi WSW 5.8 mph - N/A   Overcast
7:53 AM 27.0 °F - 21.9 °F 81% 30.24 in 10.0 mi Calm Calm - N/A   Overcast
8:53 AM 28.9 °F 23.9 °F 23.0 °F 78% 30.26 in 10.0 mi WNW 4.6 mph - N/A   Overcast
10:53 AM 34.0 °F 29.8 °F 24.1 °F 67% 30.28 in 10.0 mi NW 4.6 mph - N/A   Scattered Clouds
11:02 AM 34.0 °F 27.2 °F 24.1 °F 67% 30.25 in 10.0 mi WNW 8.1 mph - N/A   Mostly Cloudy
11:53 AM 34.0 °F 27.2 °F 25.0 °F 70% 30.28 in 10.0 mi NW 8.1 mph - N/A   Overcast
12:53 PM 34.0 °F 25.5 °F 26.1 °F 73% 30.28 in 9.0 mi NW 11.5 mph - N/A   Overcast
1:53 PM 33.1 °F 26.1 °F 27.0 °F 78% 30.30 in 9.0 mi NW 8.1 mph - N/A   Overcast
2:53 PM 33.1 °F 26.1 °F 25.0 °F 72% 30.32 in 10.0 mi NNW 8.1 mph - N/A   Overcast
3:53 PM 32.0 °F 26.4 °F 26.1 °F 79% 30.33 in 10.0 mi WNW 5.8 mph - N/A   Overcast
4:53 PM 32.0 °F 23.6 °F 25.0 °F 75% 30.34 in 10.0 mi West 10.4 mph - N/A   Overcast
5:53 PM 32.0 °F 26.4 °F 26.1 °F 79% 30.36 in 7.0 mi WNW 5.8 mph - N/A   Overcast
6:53 PM 32.0 °F 24.8 °F 26.1 °F 79% 30.37 in 7.0 mi West 8.1 mph - N/A   Overcast
7:53 PM 32.0 °F 25.6 °F 25.0 °F 75% 30.37 in 9.0 mi WNW 6.9 mph - N/A   Overcast
8:53 PM 30.9 °F 22.8 °F 24.1 °F 76% 30.38 in 10.0 mi WNW 9.2 mph - N/A   Overcast
9:42 PM 28.0 °F 21.7 °F 23.0 °F 81% 30.34 in 10.0 mi NW 5.8 mph - N/A   Scattered Clouds
9:53 PM 27.0 °F 21.6 °F 21.9 °F 81% 30.37 in 10.0 mi NW 4.6 mph - N/A   Clear
10:53 PM 25.0 °F 20.7 °F 21.9 °F 88% 30.36 in 10.0 mi West 3.5 mph - N/A   Clear
11:53 PM 21.9 °F 15.7 °F 19.9 °F 92% 30.38 in 9.0 mi West 4.6 mph - N/A   Clear